Weather in Khamitovo

Russia / Republic of Bashkortostan     53°30′15″N   57°59′17″E
temp.,
°C
wind,
m/s
gust,
m/s
humid.,
%
clouds,
%
prec.,
mm/h
press.,
hPa
HPBL,
m
28 february, sun
sun2823:00−14e2296100 0.9 100639
02:00−15ese2297100 0.1 100529
05:00−14e2297100 0.4 100475
08:00−13e1296100 0.9 1003110
11:00−10e2392100 1.4 1002250
14:00−6ese2290100 0.3 1002367
17:00−7ese1294100 0.6 1002282
20:00−11ese129698 0.3 100521
1 march, mon
mon123:00−13ese119694 0.4 100820
02:00−14se119789 0.1 101020
05:00−14s119793 0.2 101225
08:00−14sw119794 0.2 101420
11:00−9wsw129290 0.3 1015295
14:00−6w2390100 0.2 1015475
17:00−7wsw3493100 0.5 1016404
20:00−12wsw2298100 0.2 101753
2 march, tue
tue223:00−16w119999 0.3 101820
02:00−19w1110098 0.0 101820
05:00−21w1110099 0.1 101820
08:00−23wsw11100100 0.0 101720
11:00−16wsw2394100 0.1 1016258
14:00−11wsw368980 0.0 1013467
17:00−11sw389287 0.0 1012511
20:00−15ssw31196100 0.1 1011394
3 march, wed
wed323:00−16sw31496100 0.3 1010431
02:00−13sw31596100 0.4 1007546
05:00−9sw41495100 1.2 1005760
08:00−7ssw41394100 0.8 1002794
11:00−5sw51093100 1.1 1001813
14:00−3sw4893100 0.6 999846
17:00−3wsw4891100 1.5 999797
20:00−6wsw3996100 0.4 999460
4 march, thu
thu423:00−8w3696100 0.6 1002225
02:00−14w229984 0.0 100223
05:00−16w2210083 0.1 100434
08:00−16w2210099 0.0 100642
11:00−9wnw389196 0.1 1007608
14:00−7wnw5982100 0.1 10081336
17:00−9w6987100 0.3 10101010
20:00−12w41196100 0.1 1012486